Weather observations for the past three days for
Joseph A Hardy Connellsville Airport
Imperial (Metric)
Date Time (edt) Wind (mph) Vis. (mi.) Weather Sky Cond. Temperature (ºF) Relative Humidity Wind Chill (°F) Heat Index (°F) Pressure Precipitation (in)
Air Dwpt 6 hour altimeter (in) sea level (mb) 1 hr 3 hr 6 hr
Max. Min.
17 09:55 SW 8 10.00 Mostly Cloudy SCT046 SCT060 BKN110 75 68.5 80% 76 29.95 0.0
17 09:35 SW 7 10.00 Fair CLR 75.2 68.5 80% 76 29.95 0.0
17 09:15 SW 6 10.00 Fair CLR 74.7 68.7 82% 29.95 0.0
17 08:55 SW 10 10.00 Partly Cloudy SCT070 SCT075 73.9 68.2 82% 29.96 0.0
17 08:35 SW 8 10.00 Mostly Cloudy SCT060 SCT075 BKN095 73.6 67.8 82% 29.96 0.0
17 08:15 SW 10 10.00 Partly Cloudy SCT015 SCT060 SCT095 73.2 67.6 83% 29.96 0.0
17 07:55 SW 7 10.00 Partly Cloudy SCT048 73 67.6 73.2 71.2 83% 29.96 0.0
17 07:35 SW 6 10.00 Partly Cloudy SCT050 72.7 67.6 84% 29.95 0.0
17 07:15 SW 7 10.00 Partly Cloudy SCT050 72.7 67.6 84% 29.95 0.0
17 06:55 SW 7 10.00 Fair CLR 72.3 67.6 85% 29.94 0.0
17 06:35 SW 5 10.00 Fair CLR 71.4 67.5 87% 29.94 0.0
17 06:15 SW 3 10.00 Partly Cloudy SCT060 SCT120 71.4 67.1 86% 29.93 0.0
17 05:55 SW 3 10.00 Partly Cloudy SCT055 SCT065 SCT120 72 67.3 85% 29.93 0.0
17 05:35 SW 6 10.00 Overcast SCT055 BKN065 OVC100 72.3 67.3 84% 29.92 0.0
17 05:15 SW 5 10.00 Mostly Cloudy SCT055 BKN070 BKN090 72.9 67.3 83% 29.92 0.0
17 04:55 SW 6 10.00 Overcast BKN070 OVC090 73 67.1 82% 29.93 0.0
17 04:35 S 7 10.00 Overcast OVC070 73 66.9 81% 29.92 0.0
17 04:15 SW 8 10.00 Overcast OVC080 73 66.7 81% 29.92 0.0
17 03:55 SW 7 10.00 Overcast OVC080 72.7 66.7 82% 29.92 0.0
17 03:35 SW 7 10.00 Mostly Cloudy BKN090 72.9 66.7 81% 29.92 0.0
17 03:15 SW 6 10.00 Fair CLR 72.7 66.7 82% 29.92 0.0
17 02:55 SW 8 10.00 Partly Cloudy SCT100 72.9 66.7 81% 29.92 0.0
17 02:35 SW 7 10.00 Partly Cloudy SCT110 72.9 66.7 81% 29.92 0.0
17 02:15 SW 7 10.00 Fair CLR 73 66.9 81% 29.92 0.0
17 01:55 SW 7 10.00 Fair CLR 73 67.1 79.2 72.9 82% 29.92 0.0
17 01:35 SW 7 10.00 Fair CLR 73 67.5 83% 29.92 0.0
17 01:15 SW 7 10.00 Fair CLR 73.4 67.6 82% 29.92 0.0
17 00:55 SW 9 10.00 Fair CLR 73.6 67.8 82% 29.92 0.0
17 00:35 SW 8 10.00 Fair CLR 73.8 68 82% 29.92 0.0
17 00:15 SW 7 10.00 Fair CLR 73.8 68 82% 29.92 0.0
16 23:55 SW 6 10.00 Fair CLR 73.8 68.2 83% 29.92 0.0
16 23:35 SW 5 10.00 Fair CLR 74.1 68 81% 29.92 0.0
16 23:15 SW 7 10.00 Fair CLR 74.5 67.8 80% 29.92 0.0
16 22:55 SW 7 10.00 Fair CLR 74.8 67.6 78% 29.92 0.0
16 22:35 SW 7 10.00 Fair CLR 75.2 67.8 78% 76 29.93 0.0
16 22:15 SW 7 10.00 Fair CLR 75.6 67.8 77% 77 29.93 0.0
16 21:55 SW 7 10.00 Fair CLR 75.7 68.4 78% 77 29.92 0.0
16 21:35 SW 6 10.00 Fair CLR 75.9 69.1 79% 77 29.93 0.0
16 21:15 SW 8 10.00 Fair CLR 76.6 68.9 77% 78 29.93 0.0
16 20:55 W 6 10.00 Fair CLR 77.2 68.9 76% 79 29.92 0.0
16 20:35 SW 3 10.00 Fair CLR 77.9 68.7 73% 80 29.91 0.0
16 20:15 SW 5 10.00 Fair CLR 79 68.4 70% 81 29.91 0.0
16 19:55 S 6 10.00 Fair CLR 79 68.2 95.2 76.3 70% 81 29.91 0.0 0.09
16 19:35 S 5 10.00 Fair CLR 80.2 67.5 65% 83 29.91 0.0
16 19:15 SW 7 10.00 Fair CLR 81.3 68.2 64% 84 29.9 0.0
16 18:55 SW 8 10.00 Fair CLR 80.4 69.8 70% 84 29.9 0.0
16 18:35 S 7 10.00 Partly Cloudy SCT110 78.8 70.3 75% 81 29.91 0.0
16 18:15 SW 10 G 23 10.00 Mostly Cloudy SCT065 SCT080 BKN110 77.2 71.1 81% 79 29.92 0.0
16 17:55 SW 16 G 25 7.00 Light Rain SCT027 SCT042 OVC070 78.3 70.3 77% 81 29.91 0.0 0.09
16 17:35 Calm 7.00 Light Rain SCT026 SCT045 BKN070 81.7 70.7 69% 86 29.88 0.0 0.03
16 17:15 SW 10 10.00 Mostly Cloudy BKN070 BKN080 BKN120 88.9 66.4 47% 92 29.86 0.0
16 16:55 SW 10 10.00 Overcast BKN070 OVC090 88.2 65.7 47% 90 29.86 0.0
16 16:35 SW 13 G 18 10.00 Mostly Cloudy SCT065 BKN090 91 62.6 39% 92 29.85 0.0
16 16:15 W 13 10.00 Mostly Cloudy SCT065 BKN090 93.6 63.3 37% 95 29.85 0.0
16 15:55 W 13 10.00 Partly Cloudy SCT065 SCT100 94.3 62.4 35% 95 29.86 0.0
16 15:35 W 14 G 24 10.00 Mostly Cloudy BKN065 BKN090 BKN120 93.6 62.6 36% 95 29.86 0.0
16 15:15 W 13 10.00 Mostly Cloudy SCT065 BKN080 BKN100 90.5 63 40% 91 29.87 0.0
16 14:55 W 9 G 18 10.00 Mostly Cloudy SCT065 BKN100 93.4 63.3 37% 95 29.88 0.0
16 14:35 SW 8 G 20 10.00 Partly Cloudy SCT065 SCT090 93.2 63.5 37% 95 29.88 0.0
16 14:15 SW 13 G 24 10.00 Partly Cloudy SCT065 SCT080 SCT090 92.7 64.4 39% 95 29.88 0.0
16 13:55 SW 13 G 23 10.00 Partly Cloudy SCT060 SCT080 91.4 65.3 93 80.2 42% 94 29.89 0.0
16 13:35 W 13 G 24 10.00 Mostly Cloudy SCT055 BKN080 91.4 64.9 42% 93 29.89 0.0
16 13:15 SW 14 G 22 10.00 Overcast SCT055 OVC070 90.3 64.4 42% 92 29.89 0.0
16 12:55 SW 13 G 25 10.00 Mostly Cloudy SCT055 BKN080 90 65.1 44% 92 29.9 0.0
16 12:35 W 17 G 25 10.00 Partly Cloudy SCT055 90 64.8 43% 92 29.91 0.0
16 12:15 SW 17 G 26 10.00 Fair CLR 90.5 64.2 42% 92 29.91 0.0
16 11:55 W 13 G 25 10.00 Partly Cloudy SCT050 89.6 64.6 44% 91 29.91 0.0
16 11:35 W 14 G 21 10.00 Partly Cloudy SCT050 88.9 66.4 47% 92 29.91 0.0
16 11:15 W 15 G 24 10.00 Fair CLR 88.3 66 48% 91 29.91 0.0
16 10:55 SW 18 G 26 10.00 Partly Cloudy SCT044 87.1 66.4 50% 90 29.92 0.0
16 10:35 W 17 G 32 10.00 Partly Cloudy SCT045 86.5 66 51% 89 29.91 0.0
16 10:15 SW 14 G 22 10.00 Fair CLR 85.6 67.6 55% 89 29.91 0.0
16 09:55 SW 17 G 22 10.00 Fair CLR 84.7 68.5 58% 88 29.9 0.0
16 09:35 SW 16 G 22 10.00 Partly Cloudy SCT032 84.4 69.3 61% 88 29.91 0.0
16 09:15 SW 16 G 24 10.00 Fair CLR 83.5 69.1 62% 87 29.89 0.0
16 08:55 SW 13 G 18 10.00 Fair CLR 83.3 69.3 63% 87 29.87 0.0
16 08:35 S 8 10.00 Fair CLR 82.6 69.3 64% 86 29.87 0.0
16 08:15 SW 8 10.00 Fair CLR 81 68.9 67% 84 29.86 0.0
16 07:55 S 10 G 16 10.00 Fair CLR 80.1 68.2 80.2 70.3 67% 83 29.86 0.0
16 07:35 SW 8 G 16 10.00 Fair CLR 80.1 67.8 66% 83 29.89 0.0
16 07:15 SW 9 10.00 Fair CLR 79.7 67.1 65% 82 29.89 0.0
16 06:55 SW 9 10.00 Partly Cloudy BKN048 SCT080 78.4 66.4 67% 80 29.89 0.0
16 06:35 SW 7 10.00 Mostly Cloudy BKN048 BKN080 76.6 65.5 69% 78 29.91 0.0
16 06:15 SW 8 10.00 Partly Cloudy SCT050 SCT080 75.6 64.9 70% 77 29.89 0.0
16 05:55 SW 7 10.00 Mostly Cloudy BKN048 BKN080 74.8 64.4 70% 29.89 0.0
16 05:35 SW 5 10.00 Mostly Cloudy BKN048 72.7 63.5 73% 29.9 0.0
16 05:15 SW 3 10.00 Partly Cloudy SCT050 71.1 63.1 76% 29.88 0.0
16 04:55 SW 5 10.00 Partly Cloudy SCT050 72 63 73% 29.88 0.0
16 04:35 SW 3 10.00 Mostly Cloudy SCT060 BKN065 72.5 62.8 72% 29.87 0.0
16 04:15 SW 5 10.00 Overcast BKN060 OVC070 72.7 63.1 72% 29.88 0.0
16 03:55 Calm 10.00 Mostly Cloudy BKN060 BKN070 72.1 63.3 74% 29.88 0.0
16 03:35 Calm 10.00 Partly Cloudy SCT060 71.8 62.8 73% 29.89 0.0
16 03:15 E 3 10.00 Partly Cloudy SCT060 SCT070 72 63.9 76% 29.89 0.0
16 02:55 Calm 10.00 Partly Cloudy SCT060 72.3 63.9 75% 29.9 0.0
16 02:35 Calm 10.00 Fair CLR 72.1 64 76% 29.9 0.0
16 02:15 Calm 10.00 Fair CLR 72.7 64 74% 29.91 0.0
16 01:55 Calm 10.00 Partly Cloudy SCT090 74.1 63.7 88.5 73.9 70% 29.91 0.0
16 01:35 Calm 10.00 Mostly Cloudy BKN080 75 64 69% 77 29.91 0.0
16 01:15 Calm 10.00 Mostly Cloudy BKN080 74.7 63.7 69% 29.91 0.0
16 00:55 Calm 10.00 Partly Cloudy SCT075 75.6 63 65% 77 29.91 0.0
16 00:35 Calm 10.00 Partly Cloudy SCT075 77.2 63 62% 79 29.91 0.0
16 00:15 S 3 10.00 Partly Cloudy SCT075 77.5 64 63% 79 29.91 0.0
15 23:55 S 5 10.00 Partly Cloudy SCT065 78.1 64.8 64% 80 29.91 0.0
15 23:35 Calm 10.00 Mostly Cloudy BKN065 78.6 65.1 63% 80 29.92 0.0
15 23:15 SW 3 10.00 Partly Cloudy SCT075 78.1 65.1 65% 80 29.92 0.0
15 22:55 SW 5 10.00 Fair CLR 78.3 64.9 64% 80 29.92 0.0
15 22:35 W 3 10.00 Partly Cloudy SCT110 78.8 64.9 63% 81 29.92 0.0
15 22:15 Calm 10.00 Mostly Cloudy SCT065 SCT075 BKN110 80.6 64.2 58% 82 29.91 0.0
15 21:55 E 3 10.00 Partly Cloudy SCT070 81.3 64.2 56% 83 29.9 0.0
15 21:35 Calm 10.00 Partly Cloudy SCT070 SCT080 SCT120 82.8 64.2 54% 84 29.91 0.0
15 21:15 N 3 10.00 Mostly Cloudy BKN070 83.8 63.7 51% 85 29.9 0.0
15 20:55 NW 3 10.00 Mostly Cloudy BKN080 BKN110 85.6 62.1 45% 86 29.9 0.0
15 20:35 W 5 10.00 Overcast OVC080 86.9 62.1 43% 87 29.89 0.0
15 20:15 W 7 10.00 Mostly Cloudy BKN080 88 61.5 41% 88 29.9 0.0
15 19:55 W 8 10.00 Mostly Cloudy BKN090 88.5 60.6 96.4 88.3 39% 88 29.9 0.0
15 19:35 W 10 10.00 Partly Cloudy SCT075 89.4 60.4 38% 89 29.9 0.0
15 19:15 W 13 10.00 Partly Cloudy SCT080 90.9 59.7 35% 90 29.89 0.0
15 18:55 W 10 G 16 10.00 Mostly Cloudy BKN080 91.8 59.9 34% 91 29.89 0.0
15 18:35 W 10 10.00 Partly Cloudy SCT090 91.6 60.1 35% 91 29.89 0.0
15 18:15 W 13 G 22 10.00 Fair CLR 92.5 59.9 34% 92 29.89 0.0
15 17:55 W 10 G 18 10.00 Partly Cloudy SCT075 93.6 61.2 34% 94 29.89 0.0
15 17:35 W 12 10.00 Partly Cloudy SCT075 93.6 60.1 33% 93 29.88 0.0
15 17:15 W 14 G 20 10.00 Partly Cloudy SCT075 SCT120 94.5 60.3 32% 94 29.89 0.0
15 16:55 W 16 G 25 10.00 Fair CLR 93.9 59 31% 93 29.89 0.0
15 16:35 W 17 G 28 10.00 Partly Cloudy SCT085 95 57.9 29% 94 29.9 0.0
15 16:15 W 15 G 26 10.00 Partly Cloudy SCT085 95.4 59.9 31% 95 29.9 0.0
15 15:55 SW 12 G 24 10.00 Partly Cloudy SCT085 93.2 60.8 34% 93 29.91 0.0
15 15:35 SW 20 G 28 10.00 Partly Cloudy SCT085 94.3 59.4 31% 94 29.92 0.0
15 15:15 SW 20 G 24 10.00 Fair CLR 94.8 59.4 31% 94 29.93 0.0
15 14:55 SW 12 G 24 10.00 Fair CLR 94.6 59.4 31% 94 29.93 0.0
15 14:35 SW 18 G 25 10.00 Fair CLR 93.4 59.9 33% 93 29.94 0.0
15 14:15 SW 12 G 22 10.00 Fair CLR 94.3 60.8 33% 94 29.94 0.0
15 13:55 SW 14 G 22 10.00 Fair CLR 92.5 62.1 93.9 75.7 36% 93 29.96 0.0
15 13:35 SW 13 G 23 10.00 Fair CLR 92.5 61.9 36% 93 29.97 0.0
15 13:15 S 13 G 16 10.00 Fair CLR 92.5 64.4 39% 94 29.97 0.0
15 12:55 SW 13 10.00 Fair CLR 90.7 63.9 41% 92 29.98 0.0
15 12:35 W 12 G 20 10.00 Fair CLR 90.1 64.2 42% 92 29.99 0.0
15 12:15 W 13 G 18 10.00 Fair CLR 88.7 64.6 45% 90 29.99 0.0
15 11:55 SW 13 G 17 10.00 Fair CLR 87.8 65.7 48% 90 29.99 0.0
15 11:35 SW 13 G 21 10.00 Fair CLR 86.9 65.1 48% 89 30 0.0
15 11:15 SW 10 G 17 10.00 Fair CLR 85.6 64.8 50% 87 30 0.0
15 10:55 SW 8 G 20 10.00 Partly Cloudy SCT036 85.1 63.7 49% 86 30.01 0.0
15 10:35 SW 14 G 20 10.00 Partly Cloudy SCT036 84 62.6 49% 85 30.03 0.0
15 09:55 SW 13 10.00 Partly Cloudy SCT034 81.5 61.9 51% 82 30.04 0.0
15 09:35 SW 15 10.00 Mostly Cloudy BKN032 80.6 61.5 52% 82 30.04 0.0
15 09:15 SW 10 10.00 Partly Cloudy SCT032 79.3 61.7 55% 81 30.04 0.0
15 08:55 SW 8 10.00 Partly Cloudy SCT034 78.6 62.1 57% 80 30.05 0.0
15 08:35 SW 12 10.00 Fair CLR 78.1 61.9 58% 80 30.04 0.0
15 08:15 SW 7 10.00 Fair CLR 77 62.2 60% 79 30.03 0.0
15 07:55 SW 6 10.00 Partly Cloudy SCT110 75.4 62.4 75.6 70.5 64% 77 30.03 0.0
15 07:35 SW 5 10.00 Mostly Cloudy BKN110 74.8 62.2 65% 30.03 0.0
15 07:15 W 6 10.00 Mostly Cloudy SCT046 BKN095 73.4 61.9 67% 30.03 0.0
15 06:55 SW 7 10.00 Overcast SCT032 OVC046 72.5 61.9 69% 30.03 0.0
15 06:35 SW 9 10.00 Mostly Cloudy BKN032 BKN038 BKN044 72.1 62.2 71% 30.03 0.0
15 06:15 SW 9 G 16 10.00 Partly Cloudy SCT032 SCT042 71.6 62.2 72% 30.03 0.0
15 05:55 SW 8 10.00 Partly Cloudy SCT034 SCT044 SCT070 71.1 62.6 75% 30.03 0.0
15 05:35 SW 8 10.00 Overcast BKN036 BKN047 OVC055 71.4 63.1 75% 30.03 0.0
15 05:15 SW 8 10.00 Overcast BKN036 BKN042 OVC048 71.4 63.5 76% 30.03 0.0
15 04:55 SW 8 10.00 Mostly Cloudy BKN037 BKN043 BKN075 71.1 63.7 78% 30.03 0.0
15 04:35 SW 8 10.00 Mostly Cloudy SCT039 BKN047 BKN060 70.7 63.9 79% 30.04 0.0
15 04:15 SW 7 10.00 Mostly Cloudy SCT041 BKN048 BKN060 70.7 63.7 79% 30.03 0.0
15 03:55 SW 8 10.00 Mostly Cloudy SCT042 SCT047 BKN050 70.7 63.7 79% 30.03 0.0
15 03:35 SW 10 10.00 Mostly Cloudy SCT050 BKN065 70.9 63.7 78% 30.03 0.0
15 03:15 SW 8 10.00 Mostly Cloudy SCT041 BKN055 BKN075 71.4 63.9 77% 30.03 0.0
15 02:55 SW 10 10.00 Partly Cloudy SCT039 SCT047 71.6 64 77% 30.04 0.0
15 02:35 SW 7 10.00 Partly Cloudy SCT039 72.1 63.7 75% 30.03 0.0
15 02:15 SW 6 10.00 Fair CLR 72.9 63.5 73% 30.03 0.0
15 01:55 SW 7 10.00 Fair CLR 73.4 63.7 87.1 73.2 72% 30.03 0.0
15 01:35 SW 7 10.00 Fair CLR 74.5 64.2 70% 30.03 0.0
15 01:15 SW 7 10.00 Fair CLR 75.4 64.6 69% 77 30.02 0.0
15 00:55 SW 8 10.00 Fair CLR 76.1 64.9 68% 78 30.02 0.0
15 00:35 SW 7 10.00 Partly Cloudy SCT090 77.2 64.9 66% 79 30.02 0.0
15 00:15 SW 6 10.00 Partly Cloudy SCT095 77.7 64.6 64% 80 30.02 0.0
14 23:55 SW 7 10.00 Partly Cloudy SCT095 77.9 64.8 64% 80 30.02 0.0
14 23:35 SW 8 10.00 Fair CLR 78.3 64.4 63% 80 30.02 0.0
14 23:15 SW 7 10.00 Fair CLR 77.5 63.1 61% 79 30.01 0.0
14 22:55 SW 5 10.00 Fair CLR 78.3 62.4 58% 80 30 0.0
14 22:35 SW 3 10.00 Fair CLR 79.7 62.1 55% 81 30 0.0
14 22:15 SW 5 10.00 Fair CLR 80.1 61.3 53% 81 29.99 0.0
14 21:55 S 3 10.00 Fair CLR 79.2 61.3 55% 80 29.99 0.0
14 21:35 Calm 10.00 Fair CLR 80.1 60.6 52% 81 29.99 0.0
14 21:15 SE 5 10.00 Fair CLR 82.2 60.1 47% 83 29.99 0.0
14 20:55 SW 3 10.00 Fair CLR 83.3 59.7 45% 83 29.99 0.0
14 20:35 SW 3 10.00 Fair CLR 84.7 59.5 43% 85 30 0.0
14 20:15 SW 6 10.00 Fair CLR 86 59.5 41% 86 30.01 0.0
14 19:55 SW 6 10.00 Fair CLR 87.4 59.5 94.1 87.4 39% 87 30.01 0.0
14 19:35 SW 8 10.00 Fair CLR 87.8 58.8 38% 87 30.01 0.0
14 19:15 SW 9 10.00 Fair CLR 89.4 59.5 37% 89 30.01 0.0
14 18:55 SW 13 10.00 Partly Cloudy SCT075 90.3 59.9 36% 90 30.02 0.0
14 18:35 SW 12 10.00 Fair CLR 90.5 59 35% 90 30.01 0.0
14 18:15 SW 9 10.00 Fair CLR 91 58.6 34% 90 30.01 0.0
14 17:55 W 10 10.00 Partly Cloudy SCT080 90 58.5 35% 89 30.02 0.0
14 17:35 SW 10 10.00 Partly Cloudy SCT080 SCT090 90.1 58.3 34% 89 30.02 0.0
14 17:15 W 10 G 18 10.00 Partly Cloudy SCT080 91.9 57.9 32% 91 30.02 0.0
14 16:55 SW 10 10.00 Partly Cloudy SCT080 91.9 56.8 31% 90 30.03 0.0
14 16:35 SW 9 G 17 10.00 Partly Cloudy SCT080 92.5 57 30% 91 30.03 0.0
14 16:15 W 13 G 17 10.00 Partly Cloudy SCT080 92.7 57.6 31% 91 30.03 0.0
14 15:55 SW 15 10.00 Partly Cloudy SCT080 93 58.6 32% 92 30.04 0.0
14 15:35 SW 9 G 18 10.00 Partly Cloudy SCT080 92.5 57 30% 91 30.05 0.0
14 15:15 SW 7 10.00 Partly Cloudy SCT080 SCT090 93 60.1 33% 93 30.05 0.0
14 14:55 SW 8 G 18 10.00 Partly Cloudy SCT070 91.8 57.6 32% 91 30.06 0.0
14 14:35 SW 7 10.00 Partly Cloudy SCT070 91.9 59.5 34% 91 30.06 0.0
14 14:15 SW 9 10.00 Partly Cloudy SCT070 90.7 59.7 35% 90 30.07 0.0
14 13:55 SW 8 10.00 Partly Cloudy SCT065 SCT070 88.7 62.2 90.9 70.9 41% 89 30.08 0.0
14 13:35 SW 3 10.00 Partly Cloudy SCT065 89.8 62.4 40% 90 30.09 0.0
14 13:15 SW 9 10.00 Fair CLR 89.6 63.3 42% 91 30.1 0.0
14 12:55 S 10 10.00 Mostly Cloudy SCT050 SCT060 BKN090 88.2 64.2 45% 90 30.11 0.0
14 12:35 SW 9 10.00 Mostly Cloudy BKN050 BKN075 BKN090 88.7 64.6 45% 90 30.12 0.0
14 12:15 SW 7 7.00 Partly Cloudy SCT046 SCT075 88 65.8 48% 90 30.13 0.0
14 11:55 SW 9 10.00 Partly Cloudy SCT044 87.3 66.6 50% 90 30.13 0.0
14 11:35 W 7 10.00 Fair CLR 86.2 66.4 52% 89 30.13 0.0
14 11:15 W 7 10.00 Fair CLR 85.3 67.1 55% 88 30.13 0.0
14 10:55 SW 8 10.00 Fair CLR 84.2 67.6 58% 87 30.14 0.0
14 10:35 SW 7 10.00 Fair CLR 82.8 67.6 60% 86 30.14 0.0
14 10:15 W 7 10.00 Fair CLR 81.3 67.6 63% 84 30.14 0.0
Date Time (edt) Wind (mph) Vis. (mi.) Weather Sky Cond. Air Dwpt Max. Min. Relative Humidity Wind Chill (°F) Heat Index (°F) altimeter (in) sea level (mb) 1 hr 3 hr 6 hr
6 hour
Temperature (ºF) Pressure Precipitation (in)